Regional Weather Roundup
Issued by NWS Upton, NY

Current Version | Previous Version | Graphics & Text | Print | Product List | Glossary Off
Versions: 1 2 3 4 5 6 7 8 9 10 11 12 13 14 15 16 17 18 19 20 21 22 23 24 25 26 27 28 29 30 31 32 33 34 35 36 37 38 39 40 41 42 43 44 45 46 47 48 49 50

000
ASUS41 KOKX 202305
RWROKX

REGIONAL WEATHER ROUNDUP
NATIONAL WEATHER SERVICE NEW YORK NY
600 PM EST SAT DEC 20 2014

NOTE: "FAIR" INDICATES FEW OR NO CLOUDS BELOW 12,000 FEET WITH NO
SIGNIFICANT WEATHER AND/OR OBSTRUCTIONS TO VISIBILITY.

NYZ071-072-176-178-NJZ106-104-210000-
NEW YORK CITY METRO AREA


CITY           SKY/WX    TMP DP  RH WIND       PRES   REMARKS
CENTRAL PARK   CLOUDY    33  20  58 VRB3      30.30R
LAGUARDIA APRT CLOUDY    33  21  61 NE6       30.28R WCI  28
KENNEDY INTL   CLOUDY    33  21  61 SW3       30.30R
NEWARK/LIBERTY CLOUDY    33  21  61 NW8       30.29R WCI  26
BRNX BOT. GARD   N/A    N/A N/A N/A N7        30.29S
TETERBORO      CLOUDY    33  20  58 N5        30.28R WCI  29
$$

NYZ177-179-078>081-210000-
LONG ISLAND NEW YORK

CITY           SKY/WX    TMP DP  RH WIND       PRES   REMARKS
FARMINGDALE    CLOUDY    33  21  61 NW3       30.28R
ISLIP          CLOUDY    32  23  69 CALM      30.26R
SHIRLEY        CLOUDY    32  24  72 N3        30.28R
WESTHAMPTON    CLOUDY    32  26  78 NW3       30.29R
MONTAUK POINT    N/A     38  28  67 N7        30.26R WCI  33
$$

NYZ052-065-067-210000-
HUDSON VALLEY

CITY           SKY/WX    TMP DP  RH WIND       PRES   REMARKS
WHITE PLAINS   CLOUDY    30  20  66 N3        30.26R
NEWBURGH       NOT AVBL
MONTGOMERY     CLOUDY    29  21  72 N3        30.27R
POUGHKEEPSIE   CLOUDY    30  19  63 N3        30.29R
ALBANY         MOCLDY    29  18  63 CALM      30.30R
$$

NJZ001-105-106-008-010-013-015-019>022-104-210000-
NEW JERSEY

CITY           SKY/WX    TMP DP  RH WIND       PRES   REMARKS
NEWARK/LIBERTY CLOUDY    33  21  61 NW8       30.29R WCI  26
TETERBORO      CLOUDY    33  20  58 N5        30.28R WCI  29
CALDWELL       CLOUDY    32  21  64 CALM      30.29R
MORRISTOWN     CLOUDY    32  23  69 NW3       30.29R
SOMERVILLE     CLOUDY    32  21  64 N3        30.28R
SUSSEX         CLOUDY    30  20  66 NW3       30.26R
ANDOVER          N/A     29  20  69 CALM      30.26R
TRENTON        CLOUDY    32  21  64 E5        30.27S WCI  27
MILLVILLE      PTCLDY    29  24  82 CALM      30.28S
ATLANTIC CITY  PTCLDY    31  21  66 N5        30.28S WCI  26
WRIGHTSTOWN    CLOUDY    31  22  69 N3        30.26R
TOMS RIVER     CLOUDY    32  21  64 NW3       30.29S
BELMAR         CLOUDY    32  19  59 NW5       30.28R WCI  27
$$

PAZ047>061-062-071-210000-
EASTERN PENNSYLVANIA

CITY           SKY/WX    TMP DP  RH WIND       PRES   REMARKS
PHILADELPHIA   CLOUDY    35  21  56 N5        30.29S WCI  31
ALLENTOWN      CLOUDY    33  22  63 CALM      30.27S
SCRANTON       CLOUDY    30  20  66 NW6       30.24R WCI  24
$$

CTZ002-004>006-009-010-012-RIZ004-006-007-MAZ004-011-015-210000-
SOUTHERN NEW ENGLAND
 IN CT

CITY           SKY/WX    TMP DP  RH WIND       PRES   REMARKS
BRADLEY INTL   CLOUDY    31  21  66 S3        30.26R
HARTFORD       CLOUDY    30  22  72 SE7       30.28R WCI  23
DANBURY        CLOUDY    29  21  72 N5        30.27R WCI  24
WTRBRY/OXFORD  CLOUDY    28  19  69 CALM      30.25R
BRIDGEPORT     CLOUDY    32  25  75 N6        30.28R WCI  26
MERIDEN        CLOUDY    30  22  72 CALM      30.28R
NEW HAVEN      CLOUDY    33  24  69 N5        30.28R WCI  29
CHESTER        CLOUDY    30  25  80 N5        30.25S WCI  25
GROTON         CLOUDY    34  25  69 N8        30.26R WCI  27
WILLIMANTIC    CLOUDY    34  23  64 NE5       30.27R WCI  30

 IN RI

CITY           SKY/WX    TMP DP  RH WIND       PRES   REMARKS
PROVIDENCE     FLURRIES  33  25  72 N9        30.28R WCI  25
BLOCK ISLAND   CLOUDY    36  27  69 NE9       30.24R WCI  29
WESTERLY       CLOUDY    35  25  66 N7        30.26R WCI  29

 IN MA

CITY           SKY/WX    TMP DP  RH WIND       PRES   REMARKS
BOSTON         FLURRIES  33  28  81 N12       30.29R WCI  24
WORCESTER      CLOUDY    29  23  78 NE7       30.24R WCI  22
WESTFIELD      CLOUDY    32  22  66 CALM      30.27R
PROVINCETOWN   CLOUDY    39  32  75 NE17      30.26R WCI  30
NANTUCKET      CLOUDY    39  36  89 NW6       30.23R WCI  35
$$

ANZ330-335-338-340-345-350-353-355-210000-
COASTAL MARINE OBSERVATIONS


STATION/POSITION TIME  SKY/WX   TEMP    WIND        PRES    VSBY  WAVE
                                AIR SEA DIR/SP/G                  HT/PER
                 (UTC)          (F)     (DEG/KT/KT) (MB)    (MI)  (FT/S)
NY HARB ENTRANCE 2300            34 46  340/ 10/ 12 1025.7          1/10
4S FIRE IS       2300               45                N/A           1/11
20S FIRE ISLAND  2200            36 49              1024.8          1/11
23SW MTP         2300                                 N/A           2/ 5
HUDSON CANYON    2300            39 54  340/ 12/ 16 1023.9          2/ 4
EXECUTION ROCKS  2300            33 41  360/  8/ 10   N/A
WESTERN LI SOUND 2300            33     350/  6/  8   N/A           0
CENTRAL LI SOUND 2200            33 44   10/  6/  8   N/A           0
EASTERN LI SOUND NOT AVBL
ROBBINS REEF     2300            33        CALM     1024.3
$$


>>>>>>>>>>>>>>>>>>>>>>>>>>>> KEY <<<<<<<<<<<<<<<<<<<<<<<<<<<
>                                                          <
>     SKY/WX - SKY CONDITION/PRESENT WEATHER               <
>     TMP    - TEMPERATURE IN FAHRENHEIT                   <
>     DP     - DEWPOINT IN FAHRENHEIT                      <
>     RH     - RELATIVE HUMIDITY IN PERCENT                <
>     WIND   - DIRECTION AND SPEED IN MPH                  <
>     PRES   - MEAN SEA LEVEL PRESSURE IN INCHES OF HG     <
>     WCI    - WIND CHILL INDEX                            <
>     VSB    - VISIBILITY IN MILES                         <
>     HX     - HEAT INDEX                                  <
>     TC     - TEMPERATURE IN CELSIUS                      <
>     VRB    - VARIABLE WIND DIRECTION                     <
>                                                          <
>>>>>>>>>>>>>>>>>>>>>>>>>>>> KEY <<<<<<<<<<<<<<<<<<<<<<<<<<<





USA.gov is the U.S. government's official web portal to all federal, state and local government web resources and services.